Regional Weather Roundup
Issued by NWS

Home | Current Version | Previous Version | Text Only | Print | Product List | Glossary On
Versions: 1 2 3 4 5 6 7 8 9 10 11 12 13 14 15 16 17 18 19 20 21 22 23 24 25 26 27 28 29 30 31 32 33 34 35 36 37 38 39 40 41 42 43 44 45 46 47 48 49 50
000
ASUS43 KDTX 280001
RWRMI
MICHIGAN HOURLY REGIONAL WEATHER ROUNDUP
NATIONAL WEATHER SERVICE DETROIT/PONTIAC MI
800 PM EDT WED JUL 27 2016

NOTE: "FAIR" INDICATES FEW OR NO CLOUDS BELOW 12,000 FEET WITH NO
SIGNIFICANT WEATHER AND/OR OBSTRUCTION TO VISIBILITY.

MIZ047>049-052>055-059>063-066>070-074>076-081>083-280100-
SOUTHEAST LOWER MICHIGAN

CITY           SKY/WX    TMP DP  RH WIND       PRES   REMARKS
ADRIAN         CLEAR     84  64  50 W5        29.94S
6HR MIN TEMP:  84; 6HR MAX TEMP:  88;

ALMA           CLOUDY    73  71  94 W8        29.95F
ANN ARBOR      MOCLDY    85  63  47 W6        29.92S
BAD AXE        CLOUDY    70  66  86 CALM      29.94F
CARO           CLOUDY    69  66  90 CALM      29.95S
DETROIT CITY   MOCLDY    85  64  49 SW5       29.90S
6HR MIN TEMP:  85; 6HR MAX TEMP:  91;

DETROIT        MOCLDY    87  62  43 SW10      29.91F
6HR MIN TEMP:  87; 6HR MAX TEMP:  92;

FLINT          CLOUDY    81  62  52 N5        29.95S
6HR MIN TEMP:  78; 6HR MAX TEMP:  94; 6HR PCP: TRACE;

GROSSE ILE     CLEAR     82  71  70 S9        29.91R
6HR MIN TEMP:  82; 6HR MAX TEMP:  86;

HILLSDALE      CLEAR     82  65  56 N3        29.96S
6HR MIN TEMP:  59; 6HR MAX TEMP:  87; 6HR PCP:  0.10;

HOWELL         PTCLDY    76  62  59 CALM      29.96R
6HR MIN TEMP:  76; 6HR MAX TEMP:  89;


CITY           SKY/WX    TMP DP  RH WIND       PRES   REMARKS
JACKSON        PTCLDY    78  63  59 N8        29.96R
6HR MIN TEMP:  78; 6HR MAX TEMP:  87;

LAMBERTVILLE   CLEAR     86  61  43 CALM      29.93S
6HR MIN TEMP:  86; 6HR MAX TEMP:  89;

LANSING        MOSUNNY   75  62  64 N3        29.96F
6HR MIN TEMP:  75; 6HR MAX TEMP:  89;

LAPEER         FAIR      75  64  68 NE9       29.96S
6HR MIN TEMP:  75; 6HR MAX TEMP:  90;

MASON          CLEAR     76  61  59 N6        29.96S
MONROE         CLEAR     83  66  56 SW5       29.91R
6HR MIN TEMP:  83; 6HR MAX TEMP:  88;

MT. CLEMENS    MOCLDY    82  70  67 NW8       29.91R
6HR MIN TEMP:  82; 6HR MAX TEMP:  89;

PONTIAC        CLOUDY    79  64  60 N13       29.93S
6HR MIN TEMP:  79; 6HR MAX TEMP:  90;

PORT HOPE        N/A     72  68  87 E5        29.92F
6HR MIN TEMP:  70; 6HR MAX TEMP:  83; 6HR PCP:  0.05;

PORT HURON     MOCLDY    77  68  73 N10G17    29.94R
TRI CITIES     CLOUDY    72  70  93 NE5       29.95S
6HR MIN TEMP:  68; 6HR MAX TEMP:  89; 6HR PCP:  0.41;

MIDLAND        FAIR      71  69  92 NW3       29.93F
6HR MIN TEMP:  67; 6HR MAX TEMP:  90; 6HR PCP:  0.10;

TROY           MOCLDY    84  62  46 N12G21    29.94R
SAGINAW HB     PTCLDY    72  68  88 CALM      29.95R
$$
MIZ043>046-050>051-056>058-064>065-071>073-077>080-280100-
SOUTHWEST LOWER MICHIGAN

CITY           SKY/WX    TMP DP  RH WIND       PRES   REMARKS
BATTLE CREEK   PTSUNNY   74  65  73 NE16G22   29.97R
6HR MIN TEMP:  74; 6HR MAX TEMP:  85;

BENTON HARBOR  SUNNY     82  62  50 CALM      29.93F
6HR MIN TEMP:  82; 6HR MAX TEMP:  85;

BIG RAPIDS     CLOUDY    74  71  91 CALM      29.95F
6HR MIN TEMP:  67; 6HR MAX TEMP:  87; 6HR PCP:  0.59;

COLDWATER      SUNNY     83  60  45 CALM      29.95S
6HR MIN TEMP:  83; 6HR MAX TEMP:  87;

FREMONT        FAIR      78  71  77 SE5       29.95S
HOLLAND        SUNNY     81  69  67 NW3       29.95F
6HR MIN TEMP:  80; 6HR MAX TEMP:  85;

GRAND RAPIDS   CLOUDY    76  65  68 E7        29.97S
6HR MIN TEMP:  76; 6HR MAX TEMP:  88;

IONIA          FAIR      74  62  66 CALM      29.95F
6HR MIN TEMP:  71; 6HR MAX TEMP:  88;

KALAMAZOO      MOSUNNY   83  66  56 NW10      29.95S
6HR MIN TEMP:  83; 6HR MAX TEMP:  87;

LUDINGTON      CLOUDY    75  65  71 N5        29.94S
6HR MIN TEMP:  75; 6HR MAX TEMP:  83;

MARSHALL       MOSUNNY   76  63  62 N3        29.96R
6HR MIN TEMP:  76; 6HR MAX TEMP:  88;

MOUNT PLEASANT CLOUDY    73  69  88 W3        29.95R
6HR MIN TEMP:  70; 6HR MAX TEMP:  91; 6HR PCP:  0.10;

MUSKEGON       CLOUDY    82  71  69 SW6       29.94F
6HR MIN TEMP:  81; 6HR MAX TEMP:  85;

SOUTH HAVEN    SUNNY     80  65  58 NE3       29.94F
$$
MIZ016>042-280100-
NORTHERN LOWER MICHIGAN

CITY           SKY/WX    TMP DP  RH WIND       PRES   REMARKS
ALPENA         PTSUNNY   75  64  68 SE3       29.96S
6HR MIN TEMP:  74; 6HR MAX TEMP:  91; 6HR PCP:  0.08;

BEAVER ISLAND  CLOUDY    72  67  85 NW3       29.98R
6HR MIN TEMP:  72; 6HR MAX TEMP:  78;

BELLAIRE       CLOUDY    77  66  68 CALM      29.95S
6HR MIN TEMP:  77; 6HR MAX TEMP:  84;

CADILLAC       MOSUNNY   76  67  74 CALM      29.96F
CHARLEVOIX     CLOUDY    74  66  76 NW8       30.00R
6HR MIN TEMP:  74; 6HR MAX TEMP:  79;

FRANKFORT      CLOUDY    75  63  66 CALM      29.95F
GAYLORD        CLOUDY    77  64  64 CALM      29.97F
6HR MIN TEMP:  76; 6HR MAX TEMP:  85;

GRAYLING       CLOUDY    79  64  59 NW7       29.97F
HARBOR SPRINGS CLOUDY    74  67  80 N3        29.96S
HOUGHTON LAKE  MOSUNNY   76  67  73 W6        29.97F
6HR MIN TEMP:  69; 6HR MAX TEMP:  86; 6HR PCP:  0.05;

MANISTEE       CLOUDY    76  65  68 N5        29.94F
OSCODA         PTCLDY    71  68  92 N3        29.94S
6HR MIN TEMP:  68; 6HR MAX TEMP:  86; 6HR PCP:  0.02;

PELLSTON       CLOUDY    74  65  73 N6        29.97R
6HR MIN TEMP:  74; 6HR MAX TEMP:  84;

ROGERS CITY    CLOUDY    74  63  69 CALM      29.96S
TRAVERSE CITY  CLOUDY    78  66  66 N6        29.93F
6HR MIN TEMP:  73; 6HR MAX TEMP:  84;

$$
MIZ007>008-015-280100-
EASTERN UPPER MICHIGAN

CITY           SKY/WX    TMP DP  RH WIND       PRES   REMARKS
KINROSS        CLOUDY    68  58  70 N12       29.97S
6HR MIN TEMP:  68; 6HR MAX TEMP:  80;

MACKINAC ISLAN PTSUNNY   71  60  70 N6        29.97R
6HR MIN TEMP:  70; 6HR MAX TEMP:  77;

S. S. MARIE    CLOUDY    70  60  70 W6        29.96S
6HR MIN TEMP:  70; 6HR MAX TEMP:  82;

$$
MIZ004>006-011>014-085-280100-
CENTRAL UPPER MICHIGAN

CITY           SKY/WX    TMP DP  RH WIND       PRES   REMARKS
MANISTIQUE     LGT RAIN  69  64  85 N6        29.98R
6HR MIN TEMP:  69; 6HR MAX TEMP:  77; 6HR PCP:  0.01;

ESCANABA       CLOUDY    72  63  73 N7        29.97S
6HR MIN TEMP:  72; 6HR MAX TEMP:  79;

MENOMINEE      PTSUNNY  N/A N/A N/A CALM      29.96F
SAWYER-GWINN   PTSUNNY   63  57  82 NE9       30.03F
$$
MIZ001>003-009>011-084-280100-
WESTERN UPPER MICHIGAN

CITY           SKY/WX    TMP DP  RH WIND       PRES   REMARKS
IRON MOUNTAIN  CLOUDY    71  64  78 N6        29.98F
6HR MIN TEMP:  71; 6HR MAX TEMP:  74; 6HR PCP: TRACE;

HOUGHTON       CLOUDY    63  60  90 E3        30.01F
6HR MIN TEMP:  63; 6HR MAX TEMP:  69; 6HR PCP: TRACE;

IRONWOOD       CLOUDY    64  64 100 NE6       29.99R
6HR MIN TEMP:  64; 6HR MAX TEMP:  72; 6HR PCP:  0.03;

$$

ABBREVIATIONS USED IN REMARKS
   TC - TEMPERATURE IN CELSIUS
  WCI - WIND CHILL INDEX
   HX - HEAT INDEX
  VSB - VISIBILITY




USA.gov is the U.S. government's official web portal to all federal, state and local government web resources and services.